Location: Saint-Restitut
(44.3351°N, 4.7915°E)
Time: 02:00:28
(UTC+00:00)

Cosmos 2360 Rocket - Pass Details

Date: 03 February 2023
Orbit: 832 x 846 km, 71.0° (Epoch: 27 March)

Event Time Altitude Azimuth Distance (km) Brightness Sun altitude
Rises 18:01:21 0° 192° (SSW) 3,370 5.6 -12.6°
Reaches altitude 10° 18:03:48 10° 188° (S) 2,442 4.8 -13.0°
Maximum altitude 18:09:18 60° 110° (ESE) 960 2.2 -14.0°
Drops below altitude 10° 18:14:51 10° 32° (NNE) 2,468 4.2 -15.0°
Enters shadow 18:15:23 - 31° (NNE) 2,664 4.4 -15.1°
